[[{"header":{"parameterUnit":"m.s-1","parameterCategory":2,"la1":30.2991,"la2":30.254,"lo1":-89.0895,"lo2":-89.0444,"dy":0.0017,"dx":0.0017,"nx":28,"ny":28,"refTime":"2025-05-27T03:00:00:Z","depth":"0","parameterNumber":2,"parameterNumberName":"U-component_of_CURRENTS"},"data":[0,0,0,0,0,0,0,0,0,0,0,0,0,0,0,0,0,0,0,0,0,0,0,0,0,0,0,0,0,0,0,0,0,0,0,0,0,0,0,0,0,0,0,0,0,0,0,0,0,0,0,0,0,0,0,0,0,0,0.4499,0.4501,0,0.4587,0.4587,0.4588,0.4587,0.4587,0.4587,0.4586,0.4567,0.4567,0.4566,0,0,0,0,0,0,0,0,0,0,0,0,0,0.4355,0.4356,0.4499,0.4501,0.4503,0.4587,0.4587,0.4588,0.4587,0.4587,0.4587,0.4586,0.4567,0.4567,0.4566,0,0,0,0,0,0,0,0,0,0,0,0,0,0.4419,0.4357,0.4499,0.4519,0.4522,0.4587,0.4587,0.4588,0.4588,0.4587,0.4586,0.4586,0.4567,0.4567,0.4566,0.4576,0,0,0.4566,0.4566,0,0,0,0,0,0,0,0,0.4416,0.4424,0.4514,0.4518,0.4522,0.4583,0.453,0.4582,0.4588,0.4554,0.4586,0.4586,0.4568,0.4568,0.4575,0.4575,0.4575,0.4566,0.4565,0.4565,0.4565,0,0,0,0,0,0,0,0.4411,0.442,0.4526,0.4517,0.4521,0.4532,0.454,0.4539,0.4555,0.4557,0.4559,0.4582,0.4568,0.4575,0.4575,0.4574,0.4566,0.4565,0.4565,0.4565,0.4667,0.467,0,0,0,0,0,0,0.4417,0.4416,0.4523,0.4529,0.4476,0.4536,0.4544,0.4557,0.4557,0.456,0.4583,0.4582,0.4576,0.4575,0.4574,0.4658,0.4565,0.4565,0.4565,0.4664,0.4668,0.4671,0,0,0,0,0,0,0.4413,0.4425,0.452,0.4481,0.4495,0.454,0.4554,0.4559,0.4577,0.458,0.4578,0.4597,0.4576,0.4574,0.4603,0.4654,0.4565,0.4565,0.4661,0.4665,0.4669,0.4779,0,0,0,0,0,0,0.4408,0.4423,0.4428,0.4482,0.4498,0.4576,0.4556,0.4562,0.4595,0.4595,0.4591,0.4588,0.4575,0.4604,0.4603,0.4652,0.4565,0.4657,0.4663,0.4668,0.4772,0.4787,0.4799,0,0,0,0,0,0.4403,0.4415,0.4428,0.4441,0.4506,0.4579,0.4588,0.4611,0.4597,0.4619,0.4622,0.4589,0.4637,0.4606,0.4604,0.4654,0.4655,0.4661,0.4668,0.4766,0.4784,0.4799,0,0,0,0,0,0,0.4353,0.4419,0.4433,0.4464,0.4528,0.4582,0.4604,0.462,0.4639,0.4634,0.4617,0.4617,0.4675,0.4646,0.4611,0.4703,0.4644,0.465,0.4719,0.4736,0.4749,0.4738,0.4564,0,0,0,0,0,0.4348,0.4373,0.4449,0.4475,0.4508,0.4556,0.4584,0.4611,0.4643,0.465,0.4655,0.4664,0.47,0.47,0.4726,0.4754,0.4807,0.479,0.4804,0.4815,0.4808,0.4978,0.5007,0.4692,0.4692,0.4692,0,0,0.4334,0.4378,0.4389,0.4467,0.4509,0.4572,0.4569,0.4629,0.4678,0.4644,0.4695,0.4719,0.4725,0.4784,0.4804,0.4759,0.4938,0.4824,0.4833,0.4819,0.4988,0.5019,0.5047,0.4696,0.4696,0.4695,0,0,0.4336,0.4364,0.4393,0.4457,0.4544,0.4584,0.4606,0.4679,0.4705,0.476,0.4773,0.4828,0.4843,0.4885,0.4898,0.4997,0.5023,0.5003,0.504,0.5207,0.5235,0.526,0.539,0.5425,0.4989,0.4989,0.4989,0,0.4317,0.4381,0.4416,0.448,0.4553,0.4592,0.4672,0.47,0.4773,0.4829,0.4786,0.4905,0.4897,0.5007,0.5028,0.503,0.5116,0.4976,0.5228,0.5253,0.5277,0.5404,0.5442,0.4995,0.4995,0.4994,0.4993,0,0.4356,0.4423,0.4454,0.4549,0.4618,0.47,0.4772,0.484,0.4868,0.491,0.5027,0.5034,0.511,0.5119,0.5081,0.525,0.5259,0.5248,0.5187,0.5316,0.5441,0.5479,0.5004,0.5002,0.5,0.4999,0,0,0.43,0.4453,0.4467,0.4563,0.4682,0.4759,0.4851,0.4983,0.5081,0.5104,0.5248,0.5262,0.5275,0.5291,0.529,0.5378,0.5605,0.5362,0.5368,0.5492,0.5974,0.5851,0.588,0.5655,0.5662,0.5667,0.6004,0,0.4341,0.4487,0.4546,0.4707,0.4817,0.4912,0.5007,0.512,0.52,0.5338,0.536,0.5471,0.5338,0.5404,0.5471,0.5597,0.5705,0.5513,0.5828,0.5836,0.5714,0.5919,0.5613,0.5876,0.604,0.6046,0.6051,0,0.439,0.4494,0.4656,0.4872,0.4924,0.5004,0.5236,0.5325,0.5494,0.556,0.565,0.5686,0.5804,0.5689,0.5919,0.5811,0.589,0.5952,0.5969,0.5831,0.5782,0.577,0.5938,0.5733,0.6108,0.6103,0.6099,0,0.4415,0.4595,0.4741,0.4811,0.5018,0.5119,0.5222,0.5399,0.5518,0.5721,0.5832,0.5959,0.6056,0.6171,0.621,0.6127,0.648,0.6409,0.6375,0.6367,0.615,0.6111,0.6147,0.6614,0.6613,0.6612,0.6611,0,0.4495,0.4625,0.4763,0.4856,0.5055,0.5161,0.5372,0.5504,0.5688,0.5834,0.5928,0.6068,0.6184,0.6352,0.6373,0.6482,0.6629,0.6428,0.6468,0.6178,0.6139,0.5978,0.5894,0.6625,0.6622,0.6619,0.6617,0,0.4574,0.4645,0.4844,0.5028,0.5087,0.5239,0.5455,0.5579,0.5746,0.5957,0.6031,0.624,0.6439,0.6538,0.6777,0.6696,0.6635,0.6828,0.6447,0.6432,0.613,0.6063,0.6012,0.5845,0.6872,0.6871,0.6871,0,0.4648,0.4746,0.4956,0.5045,0.5138,0.533,0.5434,0.5609,0.5715,0.6027,0.6109,0.639,0.6508,0.6795,0.6766,0.6864,0.6649,0.6633,0.6387,0.611,0.607,0.586,0.5706,0.6174,0.6168,0.6163,0.6159,0,0.4812,0.4869,0.5017,0.5145,0.5259,0.5406,0.5544,0.563,0.5807,0.5943,0.6119,0.6264,0.6514,0.6466,0.6599,0.6594,0.6274,0.6527,0.637,0.5635,0.5286,0.5141,0.5945,0.6113,0.6118,0.6121,0.6124,0.6125,0.4936,0.5032,0.5135,0.5251,0.5346,0.5384,0.5415,0.551,0.5611,0.5688,0.5964,0.6009,0.6127,0.6239,0.624,0.5959,0.5985,0.572,0.5709,0.5557,0.5221,0.5897,0.601,0.6013,0.6017,0.602,0.6022,0,0.5038,0.5083,0.5201,0.5256,0.5247,0.5321,0.5385,0.5308,0.5267,0.5419,0.5491,0.5496,0.5474,0.5529,0.5372,0.5161,0.4936,0.4998,0.4619,0.4545,0.5273,0.5057,0.4807,0.4807,0.4807,0.4808,0.4808,0.4808,0.5101,0.5161,0.5144,0.5083,0.5084,0.4946,0.4918,0.4827,0.4844,0.4715,0.4643,0.4744,0.4906,0.4908,0.4661,0.4547,0.4208,0.3998,0.4056,0.4527,0.459,0.465,0.4425,0.4047,0.4046,0.3084,0.3076,0.3071]},{"header":{"parameterUnit":"m.s-1","parameterCategory":2,"la1":30.2991,"la2":30.254,"lo1":-89.0895,"lo2":-89.0444,"dy":0.0017,"dx":0.0017,"nx":28,"ny":28,"refTime":"2025-05-27T03:00:00:Z","depth":"0","parameterNumber":3,"parameterNumberName":"V-component_of_CURRENTS"},"data":[0,0,0,0,0,0,0,0,0,0,0,0,0,0,0,0,0,0,0,0,0,0,0,0,0,0,0,0,0,0,0,0,0,0,0,0,0,0,0,0,0,0,0,0,0,0,0,0,0,0,0,0,0,0,0,0,0,0,0.0057,0.0056,0,-0.0006,-0.0007,-0.0007,-0.0049,-0.005,-0.005,-0.0051,-0.016,-0.0162,-0.0165,0,0,0,0,0,0,0,0,0,0,0,0,0,0.0085,0.0085,0.0057,0.0056,0.0055,-0.0006,-0.0007,-0.0007,-0.0049,-0.005,-0.005,-0.0051,-0.0159,-0.0162,-0.0165,0,0,0,0,0,0,0,0,0,0,0,0,0,0.0055,0.0086,0.0058,0.0025,0.0021,-0.0006,-0.0007,-0.0008,-0.0049,-0.005,-0.005,-0.0051,-0.0158,-0.0162,-0.0165,-0.0172,0,0,-0.0176,-0.0178,0,0,0,0,0,0,0,0,0.0057,0.0055,0.0031,0.0027,0.0023,-0.0023,-0.0037,-0.0066,-0.0049,-0.002,-0.0051,-0.0052,-0.0119,-0.0126,-0.0132,-0.0177,-0.0182,-0.0177,-0.0179,-0.018,-0.0181,0,0,0,0,0,0,0,0.0059,0.0057,0.0035,0.003,0.0025,-0.0006,-0.001,-0.0043,-0.0063,-0.0022,-0.0026,-0.0037,-0.0122,-0.0128,-0.0135,-0.0184,-0.0176,-0.018,-0.0182,-0.0183,-0.0273,-0.0273,0,0,0,0,0,0,0.0066,0.0059,0.0037,0.0033,0.0036,-0.0006,-0.0011,-0.0005,-0.0062,-0.0072,-0.0036,-0.0039,-0.0122,-0.0131,-0.0139,-0.0142,-0.018,-0.0184,-0.0186,-0.0272,-0.0273,-0.0273,0,0,0,0,0,0,0.0067,0.0065,0.0039,0.0041,0.0035,-0.0005,0.0001,-0.0006,-0.0015,-0.0073,-0.0083,-0.0039,-0.0123,-0.0134,-0.0171,-0.0147,-0.0185,-0.0189,-0.0272,-0.0273,-0.0273,-0.0153,0,0,0,0,0,0,0.0069,0.0067,0.0077,0.0042,0.0035,0.0036,0.0001,-0.0007,-0.0022,-0.0026,-0.0078,-0.0089,-0.0124,-0.0165,-0.0174,-0.0152,-0.0192,-0.0272,-0.0272,-0.0273,-0.0156,-0.0149,-0.0142,0,0,0,0,0,0.007,0.0099,0.0079,0.0076,0.0051,0.0036,0.0031,-0.0,-0.0021,-0.0013,-0.006,-0.0087,-0.0174,-0.0168,-0.0179,-0.0157,-0.0272,-0.0272,-0.0273,-0.016,-0.015,-0.0142,0,0,0,0,0,0,0.0114,0.0096,0.0073,0.0093,0.0067,0.0028,0.0035,0.0005,-0.0024,-0.0028,-0.0088,-0.0101,-0.0131,-0.0166,-0.0158,-0.0189,-0.0228,-0.0231,-0.0139,-0.0131,-0.0124,-0.0056,-0.0195,0,0,0,0,0,0.0128,0.0146,0.011,0.0122,0.0116,0.0073,0.0063,0.0042,0.0007,-0.0006,-0.0048,-0.0096,-0.014,-0.0152,-0.0199,-0.0205,-0.0197,-0.0203,-0.0196,-0.0189,-0.0145,-0.012,-0.0104,-0.0274,-0.0274,-0.0274,0,0,0.0143,0.0137,0.0143,0.0132,0.0112,0.0128,0.0068,0.0064,0.0078,-0.0014,-0.0009,-0.0079,-0.0143,-0.0157,-0.0172,-0.0179,-0.0141,-0.019,-0.0183,-0.0142,-0.0118,-0.0101,-0.0086,-0.0275,-0.0275,-0.0275,0,0,0.0198,0.0182,0.0221,0.0212,0.0193,0.0169,0.017,0.0134,0.0122,0.0101,0.0037,-0.0003,-0.0074,-0.0094,-0.012,-0.01,-0.0117,-0.0138,-0.0025,-0.0002,0.0014,0.0028,0.006,0.0076,-0.0117,-0.0117,-0.0117,0,0.0216,0.0266,0.0226,0.0263,0.0268,0.0196,0.0236,0.0217,0.0172,0.0178,0.0116,0.0037,-0.003,-0.0018,-0.0024,-0.0075,-0.0067,-0.0046,0.0015,0.0028,0.0041,0.007,0.0086,-0.0111,-0.0112,-0.0112,-0.0113,0,0.0305,0.0341,0.0364,0.0391,0.0385,0.0409,0.0373,0.0375,0.0329,0.0303,0.0282,0.0187,0.015,0.0106,0.0043,0.0094,0.0069,0.0012,0.001,0.0067,0.0091,0.0107,-0.0103,-0.0105,-0.0107,-0.0108,0,0,0.0356,0.0419,0.0426,0.0468,0.046,0.047,0.05,0.0515,0.056,0.0479,0.0533,0.042,0.036,0.0327,0.0242,0.0257,0.0325,0.0183,0.0181,0.0246,0.0394,0.0328,0.0337,0.028,0.0283,0.0286,0.0377,0,0.044,0.0553,0.0548,0.0636,0.0691,0.065,0.0693,0.069,0.0663,0.0695,0.0606,0.0603,0.0447,0.0436,0.0418,0.0353,0.037,0.0307,0.0302,0.0303,0.0264,0.0355,0.0306,0.0379,0.0391,0.0394,0.0395,0,0.0536,0.0602,0.0714,0.0794,0.0811,0.0845,0.0906,0.0936,0.0954,0.0938,0.0911,0.0834,0.0828,0.0683,0.0636,0.0603,0.0515,0.0459,0.0459,0.0378,0.0266,0.032,0.0406,0.0142,0.0418,0.0416,0.0415,0,0.0615,0.0718,0.0816,0.0839,0.091,0.0955,0.0988,0.1016,0.1078,0.1112,0.1165,0.1095,0.111,0.0988,0.0818,0.0747,0.0783,0.0666,0.0534,0.0529,0.0481,0.0465,0.0344,0.066,0.066,0.066,0.066,0,0.0724,0.0801,0.0867,0.0923,0.1048,0.1052,0.1178,0.1206,0.1282,0.1402,0.1299,0.1392,0.1191,0.1153,0.0949,0.0808,0.0881,0.0602,0.0564,0.0515,0.0502,0.026,0.0104,0.0663,0.0662,0.0662,0.0661,0,0.0807,0.0853,0.0967,0.1056,0.1094,0.1179,0.1307,0.1407,0.1466,0.1631,0.1664,0.167,0.1638,0.1418,0.1274,0.1021,0.0712,0.0787,0.0744,0.0698,0.0279,0.0132,0.0017,-0.0095,0.067,0.0669,0.0669,0,0.0875,0.0944,0.1056,0.1133,0.118,0.1306,0.141,0.1492,0.1608,0.1811,0.1914,0.1956,0.2011,0.1764,0.1357,0.1042,0.0756,0.0738,0.0572,0.0295,0.0104,-0.0003,-0.0097,0.056,0.0558,0.0557,0.0556,0,0.0989,0.1009,0.1093,0.1252,0.1366,0.1504,0.1658,0.1781,0.1921,0.2098,0.2335,0.2422,0.2202,0.1889,0.1417,0.1138,0.0522,0.07,0.0437,0.0046,-0.0096,-0.0235,0.0458,0.0545,0.0546,0.0547,0.0547,0.0548,0.1055,0.1126,0.1229,0.1376,0.1515,0.1689,0.1826,0.2021,0.2262,0.2567,0.2634,0.2838,0.2317,0.1691,0.1277,0.044,0.0472,0.0154,0.0018,-0.0048,-0.0223,0.0447,0.0456,0.0457,0.0458,0.0458,0.0458,0,0.114,0.1216,0.1358,0.1526,0.1682,0.1737,0.1987,0.2157,0.247,0.2793,0.3032,0.289,0.2228,0.1512,0.0401,-0.0151,-0.0359,-0.0457,-0.0633,-0.0683,-0.0057,-0.0135,-0.0282,-0.0282,-0.0282,-0.0281,-0.0281,-0.0281,0.1193,0.1317,0.1383,0.1635,0.1758,0.198,0.2124,0.2414,0.2682,0.3064,0.3218,0.3303,0.2658,0.0758,-0.0516,-0.0791,-0.1172,-0.1257,-0.1401,-0.1028,-0.0982,-0.0938,-0.1049,-0.1385,-0.1386,-0.198,-0.1986,-0.1991]}],[{"header":{"parameterUnit":"m.s-1","parameterCategory":2,"la1":30.2991,"la2":30.254,"lo1":-89.0895,"lo2":-89.0444,"dy":0.0017,"dx":0.0017,"nx":28,"ny":28,"refTime":"2025-05-27T03:00:00:Z","depth":"2","parameterNumber":2,"parameterNumberName":"U-component_of_CURRENTS"},"data":[0,0,0,0,0,0,0,0,0,0,0,0,0,0,0,0,0,0,0,0,0,0,0,0,0,0,0,0,0,0,0,0,0,0,0,0,0,0,0,0,0,0,0,0,0,0,0,0,0,0,0,0,0,0,0,0,0,0,0.3431,0.3431,0,0.3477,0.3478,0.3479,0.3501,0.3501,0.35,0.35,0.3499,0.3499,0.35,0,0,0,0,0,0,0,0,0,0,0,0,0,0.3333,0.3335,0.3431,0.3431,0.3431,0.3477,0.3478,0.3479,0.3501,0.3501,0.35,0.3499,0.3498,0.3499,0.35,0,0,0,0,0,0,0,0,0,0,0,0,0,0.3382,0.3336,0.3431,0.3443,0.3444,0.3477,0.3478,0.348,0.3501,0.3501,0.35,0.3499,0.3498,0.3499,0.35,0.3521,0,0,0.3502,0.3502,0,0,0,0,0,0,0,0,0.338,0.3387,0.3441,0.3442,0.3443,0.3477,0.3443,0.3489,0.3502,0.3486,0.35,0.3499,0.3484,0.3486,0.3505,0.3521,0.3521,0.3502,0.3502,0.3503,0.3503,0,0,0,0,0,0,0,0.3376,0.3385,0.3455,0.3441,0.3443,0.3436,0.3443,0.3452,0.3492,0.3487,0.3487,0.3484,0.3485,0.3505,0.3505,0.3521,0.3502,0.3503,0.3503,0.3503,0.3604,0.3606,0,0,0,0,0,0,0.3362,0.3382,0.3453,0.3456,0.3402,0.3438,0.3446,0.3472,0.3493,0.3495,0.3484,0.3484,0.3504,0.3504,0.3505,0.356,0.3503,0.3503,0.3504,0.3602,0.3605,0.3607,0,0,0,0,0,0,0.336,0.3369,0.3451,0.3413,0.3422,0.344,0.3469,0.3473,0.3509,0.3491,0.3492,0.3516,0.3503,0.3504,0.3533,0.3559,0.3504,0.3504,0.3599,0.3603,0.3606,0.3651,0,0,0,0,0,0,0.3358,0.3369,0.3383,0.3413,0.3424,0.3477,0.3469,0.3475,0.3503,0.3505,0.3518,0.3516,0.3503,0.3533,0.3534,0.3559,0.3505,0.3597,0.3601,0.3605,0.3647,0.3655,0.3663,0,0,0,0,0,0.3355,0.336,0.3385,0.3392,0.3444,0.3477,0.3483,0.3495,0.3506,0.3525,0.3541,0.3517,0.356,0.3535,0.3536,0.3561,0.3595,0.36,0.3605,0.3643,0.3654,0.3663,0,0,0,0,0,0,0.3303,0.3364,0.3391,0.3411,0.345,0.3478,0.3486,0.3512,0.3545,0.3544,0.3542,0.3543,0.3578,0.3573,0.3546,0.3608,0.3575,0.3581,0.3604,0.3614,0.3622,0.3668,0.3506,0,0,0,0,0,0.3306,0.3345,0.3392,0.3411,0.3432,0.3473,0.3489,0.3507,0.3533,0.3549,0.3589,0.3605,0.3601,0.3609,0.3622,0.3655,0.3713,0.3676,0.3684,0.3691,0.3732,0.3867,0.3892,0.3624,0.3624,0.3624,0,0,0.3293,0.3327,0.3349,0.3406,0.3437,0.3475,0.3483,0.3512,0.3553,0.3541,0.3633,0.364,0.3618,0.3654,0.367,0.3651,0.3792,0.3697,0.3702,0.3741,0.3875,0.3902,0.3925,0.3627,0.3627,0.3626,0,0,0.3284,0.332,0.336,0.3399,0.3448,0.3472,0.3489,0.3565,0.3606,0.3674,0.3673,0.3713,0.3741,0.3746,0.3732,0.3801,0.3832,0.3798,0.3873,0.4002,0.4026,0.4048,0.4128,0.4157,0.38,0.38,0.38,0,0.3276,0.3318,0.3369,0.3415,0.3453,0.3478,0.3532,0.3564,0.3653,0.3713,0.3705,0.3821,0.3783,0.383,0.3835,0.3818,0.3895,0.3824,0.4015,0.4038,0.406,0.4137,0.4168,0.3803,0.3802,0.3802,0.3802,0,0.33,0.3338,0.3355,0.3439,0.3497,0.3523,0.3593,0.3662,0.3717,0.3777,0.3892,0.3898,0.3982,0.395,0.3892,0.4022,0.4026,0.4009,0.3989,0.409,0.4164,0.4195,0.3807,0.3806,0.3805,0.3804,0,0,0.3279,0.3361,0.337,0.3429,0.3511,0.3569,0.3641,0.3737,0.3808,0.3913,0.4053,0.4046,0.4119,0.4115,0.4096,0.4171,0.433,0.4156,0.4161,0.4235,0.4618,0.4438,0.4454,0.4366,0.4373,0.4378,0.4598,0,0.3286,0.337,0.3417,0.351,0.3572,0.364,0.372,0.3822,0.3898,0.4038,0.4097,0.4194,0.4158,0.4202,0.4293,0.4334,0.4423,0.4272,0.4512,0.4519,0.4347,0.4489,0.4113,0.4264,0.4629,0.4634,0.4638,0,0.3303,0.3363,0.3457,0.359,0.3628,0.3673,0.3838,0.3925,0.4077,0.4152,0.4303,0.4368,0.4513,0.4449,0.4676,0.4598,0.463,0.4645,0.4655,0.4504,0.44,0.423,0.4308,0.4691,0.4687,0.4683,0.4679,0,0.3285,0.3399,0.3478,0.352,0.3662,0.3721,0.3803,0.3959,0.4062,0.4248,0.4338,0.4555,0.4663,0.4806,0.4858,0.4805,0.5083,0.5012,0.4888,0.4874,0.461,0.4561,0.5185,0.5184,0.5184,0.5183,0.5183,0,0.3263,0.334,0.3464,0.3488,0.3604,0.3747,0.3871,0.396,0.4143,0.427,0.442,0.4535,0.4763,0.4928,0.4973,0.5052,0.521,0.4952,0.4946,0.4607,0.4557,0.4967,0.4939,0.5191,0.519,0.5188,0.5187,0,0.3234,0.3303,0.3416,0.3548,0.3578,0.3695,0.3861,0.3955,0.4123,0.4296,0.4369,0.46,0.4816,0.4997,0.5208,0.5161,0.525,0.5215,0.4774,0.471,0.4926,0.4898,0.5147,0.5143,0.514,0.5137,0.5134,0,0.3259,0.3281,0.3414,0.3487,0.3525,0.3677,0.3743,0.3913,0.399,0.4294,0.4341,0.4626,0.475,0.5013,0.5027,0.5142,0.5232,0.4781,0.4584,0.4967,0.4937,0.4914,0.4891,0.4254,0.4245,0.4237,0.4231,0,0.3245,0.3262,0.3299,0.3456,0.353,0.3654,0.3733,0.376,0.3982,0.4111,0.4288,0.4435,0.4653,0.4594,0.4707,0.4694,0.4743,0.4621,0.5225,0.4287,0.4134,0.41,0.4106,0.4163,0.4169,0.4174,0.4178,0.4181,0.3237,0.3251,0.3286,0.3397,0.3532,0.3606,0.3554,0.3666,0.377,0.3851,0.4068,0.4124,0.4211,0.4186,0.4118,0.4078,0.4375,0.4176,0.4198,0.4228,0.4051,0.3897,0.3848,0.3853,0.3857,0.386,0.3864,0,0.3173,0.3174,0.3251,0.3329,0.3396,0.3553,0.3522,0.3414,0.3399,0.3577,0.3664,0.3423,0.341,0.3538,0.3362,0.3351,0.33,0.3229,0.3139,0.3211,0.3274,0.3044,0.2577,0.2572,0.2568,0.2564,0,0,0.3171,0.3116,0.3069,0.3119,0.3244,0.3175,0.3119,0.3024,0.3013,0.2969,0.2975,0.3195,0.3393,0.2914,0.2879,0.2702,0.2921,0.2597,0.3638,0.3603,0.3659,0.3842,0.3572,0,0,0,0,0]},{"header":{"parameterUnit":"m.s-1","parameterCategory":2,"la1":30.2991,"la2":30.254,"lo1":-89.0895,"lo2":-89.0444,"dy":0.0017,"dx":0.0017,"nx":28,"ny":28,"refTime":"2025-05-27T03:00:00:Z","depth":"2","parameterNumber":3,"parameterNumberName":"V-component_of_CURRENTS"},"data":[0,0,0,0,0,0,0,0,0,0,0,0,0,0,0,0,0,0,0,0,0,0,0,0,0,0,0,0,0,0,0,0,0,0,0,0,0,0,0,0,0,0,0,0,0,0,0,0,0,0,0,0,0,0,0,0,0,0,0.0026,0.0025,0,-0.0026,-0.0026,-0.0027,-0.0067,-0.0068,-0.0068,-0.0068,-0.0171,-0.0173,-0.0176,0,0,0,0,0,0,0,0,0,0,0,0,0,0.0036,0.0037,0.0026,0.0025,0.0025,-0.0026,-0.0026,-0.0027,-0.0067,-0.0068,-0.0068,-0.0069,-0.017,-0.0173,-0.0176,0,0,0,0,0,0,0,0,0,0,0,0,0,0.0014,0.0037,0.0026,-0.0002,-0.0005,-0.0026,-0.0027,-0.0027,-0.0067,-0.0068,-0.0068,-0.0069,-0.0169,-0.0173,-0.0176,-0.0185,0,0,-0.0187,-0.0188,0,0,0,0,0,0,0,0,0.0015,0.0013,0.0003,0.0,-0.0003,-0.0041,-0.0061,-0.0083,-0.0067,-0.0043,-0.0068,-0.0069,-0.0132,-0.0139,-0.0146,-0.019,-0.0194,-0.0187,-0.0189,-0.0191,-0.0192,0,0,0,0,0,0,0,0.0017,0.0015,0.0006,0.0002,-0.0001,-0.003,-0.0034,-0.0065,-0.0084,-0.0045,-0.0048,-0.0054,-0.0134,-0.0142,-0.0149,-0.0196,-0.0187,-0.019,-0.0192,-0.0194,-0.0269,-0.0269,0,0,0,0,0,0,0.0026,0.0017,0.0008,0.0004,0.0004,-0.003,-0.0034,-0.0028,-0.0083,-0.0091,-0.0054,-0.0056,-0.0136,-0.0144,-0.0152,-0.016,-0.0191,-0.0194,-0.0196,-0.0269,-0.0269,-0.0269,0,0,0,0,0,0,0.0027,0.0026,0.001,0.0008,0.0004,-0.0029,-0.0023,-0.0029,-0.0037,-0.0089,-0.0099,-0.0057,-0.0137,-0.0148,-0.018,-0.0165,-0.0196,-0.0199,-0.0269,-0.0269,-0.0269,-0.018,0,0,0,0,0,0,0.0027,0.0027,0.0039,0.0009,0.0004,0.0011,-0.0022,-0.0029,-0.0041,-0.0044,-0.0094,-0.0104,-0.0138,-0.0174,-0.0183,-0.017,-0.0202,-0.027,-0.0269,-0.0269,-0.0183,-0.0177,-0.0171,0,0,0,0,0,0.0028,0.0056,0.004,0.0038,0.0021,0.0012,0.0007,-0.0019,-0.004,-0.0032,-0.0075,-0.0103,-0.018,-0.0177,-0.0187,-0.0175,-0.027,-0.0269,-0.0269,-0.0186,-0.0178,-0.0172,0,0,0,0,0,0,0.0064,0.0053,0.0035,0.0057,0.0038,0.0005,0.0014,-0.0014,-0.0041,-0.0048,-0.0102,-0.0114,-0.0138,-0.0172,-0.0167,-0.0199,-0.0229,-0.0231,-0.0162,-0.0155,-0.015,-0.0119,-0.0205,0,0,0,0,0,0.0078,0.0095,0.007,0.0083,0.0082,0.0045,0.0038,0.0016,-0.0014,-0.0026,-0.0066,-0.011,-0.0144,-0.0161,-0.0197,-0.0212,-0.0237,-0.0213,-0.0207,-0.0202,-0.0185,-0.0207,-0.0201,-0.0268,-0.0268,-0.0268,0,0,0.0089,0.0088,0.0094,0.0091,0.0077,0.0086,0.0041,0.0038,0.0038,-0.0034,-0.0043,-0.0092,-0.0145,-0.0162,-0.0175,-0.0188,-0.0198,-0.0201,-0.0196,-0.0183,-0.0206,-0.0199,-0.0193,-0.0268,-0.0268,-0.0268,0,0,0.013,0.0128,0.0157,0.0152,0.0138,0.0119,0.012,0.0088,0.0073,0.005,-0.0001,-0.0038,-0.0092,-0.0121,-0.0145,-0.013,-0.0169,-0.0146,-0.0087,-0.0108,-0.0102,-0.0097,-0.0124,-0.0122,-0.014,-0.0139,-0.0139,0,0.0144,0.018,0.0161,0.0187,0.0191,0.0139,0.0165,0.0145,0.0101,0.0095,0.0058,-0.0016,-0.0069,-0.0081,-0.0081,-0.0114,-0.0134,-0.0105,-0.0097,-0.0093,-0.0089,-0.0118,-0.0117,-0.0135,-0.0136,-0.0136,-0.0136,0,0.0203,0.0232,0.0252,0.0269,0.0268,0.0284,0.0253,0.0248,0.0211,0.018,0.0152,0.0077,0.0038,0.0009,-0.0035,-0.0033,-0.0058,-0.0087,-0.0107,-0.0077,-0.011,-0.0111,-0.0129,-0.0131,-0.0132,-0.0133,0,0,0.0236,0.0287,0.0292,0.0324,0.0316,0.0327,0.0334,0.0332,0.0351,0.0283,0.0299,0.0213,0.0166,0.0136,0.0075,0.0049,0.0041,-0.0001,-0.0004,-0.0013,-0.0004,-0.0062,-0.0069,0.0018,0.0019,0.0019,-0.0039,0,0.0289,0.0372,0.0369,0.0431,0.0474,0.0442,0.0466,0.045,0.0416,0.0418,0.0334,0.0315,0.0218,0.0204,0.016,0.0085,0.0045,0.0059,-0.0045,-0.0048,-0.0091,-0.007,-0.0043,-0.0096,-0.004,-0.004,-0.004,0,0.0348,0.0401,0.0481,0.0547,0.0562,0.0589,0.0624,0.0629,0.0608,0.0581,0.0532,0.0465,0.0415,0.0325,0.0209,0.0227,0.0116,0.0042,0.0038,-0.0043,-0.0107,-0.0119,-0.01,-0.0041,-0.0041,-0.0041,-0.0041,0,0.0402,0.0479,0.0553,0.0571,0.0628,0.0666,0.0691,0.0687,0.0722,0.0685,0.0706,0.0609,0.0592,0.045,0.0277,0.0251,0.015,0.0093,-0.007,-0.0075,-0.0088,-0.0095,-0.0002,-0.0002,-0.0002,-0.0002,-0.0001,0,0.0468,0.0526,0.0596,0.0641,0.0743,0.0746,0.0829,0.0836,0.0868,0.0944,0.08,0.084,0.0626,0.0533,0.0343,0.0149,0.0195,-0.005,-0.0089,-0.0059,-0.0063,-0.0045,-0.0049,-0.0004,-0.0003,-0.0003,-0.0002,0,0.0519,0.0554,0.0648,0.0737,0.0775,0.0843,0.0943,0.1019,0.1016,0.1115,0.112,0.1039,0.0918,0.0681,0.0468,0.0256,0.0059,-0.0035,0.0008,-0.0027,-0.0173,-0.0172,-0.0213,-0.0215,-0.0217,-0.0219,-0.022,0,0.0557,0.0614,0.0729,0.0778,0.0825,0.0924,0.1025,0.1088,0.1181,0.1254,0.1339,0.1242,0.1199,0.0833,0.0454,0.0106,0.0062,-0.0126,-0.0191,-0.0157,-0.0192,-0.0188,-0.0184,-0.0173,-0.0174,-0.0175,-0.0175,0,0.0627,0.066,0.0733,0.0854,0.0964,0.1089,0.1239,0.1359,0.1464,0.1574,0.1696,0.1667,0.1294,0.094,0.0418,0.0173,-0.0072,-0.0156,-0.0103,-0.0132,-0.0127,-0.0159,-0.0155,-0.0182,-0.0181,-0.0181,-0.018,-0.018,0.0661,0.0715,0.0805,0.0947,0.1054,0.1247,0.1411,0.1581,0.1794,0.1977,0.1938,0.189,0.1446,0.0774,0.0348,-0.0121,-0.0114,-0.0289,-0.0283,-0.0277,-0.0271,-0.0271,-0.0351,-0.0351,-0.0351,-0.0352,-0.0352,0,0.0711,0.0774,0.0893,0.1066,0.1234,0.1271,0.1557,0.1733,0.2031,0.2126,0.2201,0.1778,0.135,0.0858,0.0156,-0.0273,-0.0294,-0.0397,-0.0323,-0.0315,-0.0307,-0.03,-0.039,-0.0391,-0.0392,-0.0392,0,0,0.0718,0.0834,0.0942,0.122,0.1332,0.1579,0.1758,0.2002,0.2131,0.2245,0.2206,0.206,0.1468,0.0958,0.0392,0.001,-0.0055,-0.0072,-0.0002,0.0158,0.0171,-0.0214,-0.019,0,0,0,0,0]}],[{"header":{"parameterUnit":"m.s-1","parameterCategory":2,"la1":30.2991,"la2":30.254,"lo1":-89.0895,"lo2":-89.0444,"dy":0.0017,"dx":0.0017,"nx":28,"ny":28,"refTime":"2025-05-27T03:00:00:Z","depth":"4","parameterNumber":2,"parameterNumberName":"U-component_of_CURRENTS"},"data":[0,0,0,0,0,0,0,0,0,0,0,0,0,0,0,0,0,0,0,0,0,0,0,0,0,0,0,0,0,0,0,0,0,0,0,0,0,0,0,0,0,0,0,0,0,0,0,0,0,0,0,0,0,0,0,0,0,0,0.1832,0.1834,0,0.1921,0.1922,0.1922,0.1976,0.1977,0.1978,0.1979,0.2084,0.2086,0.2088,0,0,0,0,0,0,0,0,0,0,0,0,0,0.1733,0.1734,0.1832,0.1834,0.1836,0.1921,0.1922,0.1922,0.1975,0.1977,0.1978,0.1979,0.2084,0.2086,0.2088,0,0,0,0,0,0,0,0,0,0,0,0,0,0.1785,0.1734,0.1832,0.188,0.1886,0.1921,0.1922,0.1922,0.1975,0.1977,0.1978,0.198,0.2083,0.2086,0.2088,0.207,0,0,0.2096,0.2097,0,0,0,0,0,0,0,0,0.1782,0.1788,0.1871,0.1877,0.1884,0.1948,0.1926,0.1976,0.1975,0.1931,0.1979,0.1981,0.2045,0.2051,0.205,0.2075,0.208,0.2096,0.2098,0.2099,0.21,0,0,0,0,0,0,0,0.1779,0.1784,0.1858,0.1873,0.1881,0.1907,0.1915,0.1935,0.197,0.1935,0.1941,0.1966,0.2048,0.2047,0.2053,0.2081,0.2096,0.2099,0.21,0.2101,0.2236,0.2238,0,0,0,0,0,0,0.1784,0.1781,0.1855,0.1861,0.1847,0.1908,0.1916,0.1917,0.197,0.1982,0.1965,0.1969,0.2042,0.205,0.2057,0.2155,0.2099,0.2102,0.2103,0.2234,0.2237,0.2239,0,0,0,0,0,0,0.1781,0.1788,0.1852,0.1832,0.1844,0.1909,0.1909,0.1919,0.1961,0.1994,0.2005,0.2004,0.2043,0.2053,0.2123,0.2155,0.2103,0.2105,0.2232,0.2235,0.2238,0.2276,0,0,0,0,0,0,0.1777,0.1786,0.1808,0.1832,0.1845,0.1891,0.1909,0.1919,0.1976,0.1982,0.203,0.2039,0.2046,0.2119,0.2126,0.2158,0.2107,0.2229,0.2233,0.2237,0.2272,0.228,0.2286,0,0,0,0,0,0.1772,0.179,0.1807,0.1819,0.1865,0.1893,0.1901,0.1947,0.1976,0.1991,0.2043,0.204,0.2148,0.2123,0.213,0.2164,0.2228,0.2232,0.2237,0.2269,0.2278,0.2286,0,0,0,0,0,0,0.1755,0.1799,0.1818,0.1848,0.188,0.1906,0.1942,0.1967,0.2016,0.2046,0.2065,0.2077,0.2144,0.2155,0.2127,0.2216,0.2187,0.2193,0.2209,0.2218,0.2225,0.2224,0.2109,0,0,0,0,0,0.1762,0.1795,0.1825,0.1857,0.1875,0.1913,0.1942,0.1973,0.2015,0.204,0.2068,0.2115,0.2159,0.2193,0.2219,0.2271,0.2303,0.2299,0.2306,0.2312,0.2318,0.2413,0.2429,0.2254,0.2254,0.2254,0,0,0.1772,0.18,0.1823,0.1859,0.189,0.191,0.1933,0.1988,0.2026,0.2044,0.2108,0.2137,0.2178,0.2234,0.2266,0.2256,0.2379,0.2318,0.2322,0.2326,0.2419,0.2436,0.2452,0.2257,0.2256,0.2256,0,0,0.1789,0.1823,0.1849,0.1866,0.1927,0.1948,0.1971,0.2011,0.2057,0.2121,0.2145,0.2202,0.2261,0.229,0.2317,0.2383,0.2407,0.2397,0.2441,0.2533,0.2548,0.2562,0.262,0.2639,0.2409,0.2409,0.2409,0,0.18,0.1823,0.1863,0.1876,0.1903,0.1964,0.1985,0.2033,0.2095,0.2146,0.2157,0.2267,0.2288,0.2371,0.239,0.2398,0.2451,0.2401,0.2542,0.2556,0.257,0.2627,0.2647,0.2411,0.2411,0.241,0.241,0,0.181,0.1839,0.1856,0.1892,0.1924,0.1957,0.2018,0.208,0.2149,0.2195,0.2303,0.234,0.2414,0.2421,0.2428,0.253,0.2536,0.2533,0.2517,0.259,0.2645,0.2665,0.2414,0.2414,0.2413,0.2412,0,0,0.1797,0.1853,0.186,0.1873,0.1936,0.1954,0.2049,0.2136,0.2212,0.2291,0.2387,0.2454,0.2494,0.2526,0.2544,0.2608,0.2731,0.2617,0.262,0.2668,0.2933,0.2724,0.2726,0.2769,0.2773,0.2776,0.2932,0,0.1794,0.1815,0.1856,0.1887,0.1895,0.198,0.2038,0.2137,0.2251,0.2355,0.2454,0.2544,0.2533,0.2586,0.2653,0.2715,0.2788,0.2688,0.2861,0.2866,0.2665,0.2743,0.2788,0.2947,0.2952,0.2955,0.2957,0,0.1774,0.1795,0.1819,0.1871,0.1884,0.1927,0.2059,0.2126,0.2303,0.2401,0.2542,0.262,0.2746,0.2722,0.2894,0.2842,0.2897,0.2931,0.2939,0.2742,0.2693,0.2862,0.2994,0.2991,0.2988,0.2986,0.2984,0,0.1708,0.1764,0.1787,0.1796,0.1865,0.1931,0.1999,0.2154,0.2239,0.2464,0.2568,0.2723,0.283,0.2935,0.3019,0.2991,0.3187,0.316,0.3023,0.3009,0.3134,0.3117,0.3288,0.3287,0.3287,0.3287,0.3286,0,0.1644,0.1657,0.1768,0.176,0.1806,0.1889,0.1991,0.2098,0.2279,0.2391,0.2592,0.2711,0.2897,0.3028,0.3079,0.3107,0.3257,0.3039,0.3041,0.3144,0.3128,0.3148,0.3129,0.3292,0.3291,0.329,0.3289,0,0.152,0.1594,0.1608,0.1713,0.1766,0.1794,0.1966,0.2038,0.2241,0.2415,0.2501,0.2752,0.2929,0.3066,0.3237,0.3166,0.322,0.3193,0.3296,0.33,0.2966,0.2948,0.3059,0.3053,0.3048,0.3044,0.304,0,0.143,0.1445,0.1556,0.1574,0.1626,0.1725,0.1792,0.1999,0.2105,0.2418,0.2483,0.2738,0.2891,0.2976,0.3113,0.3203,0.3167,0.3164,0.3046,0.2955,0.2947,0.2937,0.2927,0.3032,0.3031,0.303,0.3028,0,0.1257,0.1333,0.1343,0.1411,0.1486,0.1556,0.1702,0.1774,0.2032,0.2249,0.2441,0.2569,0.2752,0.2875,0.296,0.3013,0.3143,0.311,0.3119,0.3009,0.2924,0.2919,0.2914,0.3011,0.3013,0.3015,0.3016,0,0.1123,0.1104,0.1168,0.1221,0.1295,0.1359,0.1468,0.1632,0.177,0.2154,0.2214,0.25,0.2731,0.2779,0.2861,0.289,0.2848,0.2745,0.2772,0.2793,0.2629,0.2477,0.2439,0,0,0,0,0,0.098,0.0976,0.0985,0.103,0.1104,0.1179,0.138,0.1517,0.1824,0.1902,0.206,0.2237,0.24,0.2536,0.2516,0.271,0.2823,0.2669,0.2707,0.2913,0.2934,0.2761,0,0,0,0,0,0,0.0891,0.0877,0.0915,0.0877,0.0897,0.0981,0.1112,0.1322,0.1401,0.1723,0.1833,0.2071,0.226,0.2386,0.2461,0.25,0.2471,0.2844,0.2838,0.2902,0.292,0.2936,0.2766,0,0,0,0,0]},{"header":{"parameterUnit":"m.s-1","parameterCategory":2,"la1":30.2991,"la2":30.254,"lo1":-89.0895,"lo2":-89.0444,"dy":0.0017,"dx":0.0017,"nx":28,"ny":28,"refTime":"2025-05-27T03:00:00:Z","depth":"4","parameterNumber":3,"parameterNumberName":"V-component_of_CURRENTS"},"data":[0,0,0,0,0,0,0,0,0,0,0,0,0,0,0,0,0,0,0,0,0,0,0,0,0,0,0,0,0,0,0,0,0,0,0,0,0,0,0,0,0,0,0,0,0,0,0,0,0,0,0,0,0,0,0,0,0,0,0.0101,0.0101,0,0.0064,0.0063,0.0063,0.0042,0.0042,0.0041,0.0041,-0.003,-0.0032,-0.0033,0,0,0,0,0,0,0,0,0,0,0,0,0,0.0106,0.0107,0.0101,0.0101,0.01,0.0064,0.0063,0.0063,0.0042,0.0042,0.0041,0.0041,-0.003,-0.0032,-0.0033,0,0,0,0,0,0,0,0,0,0,0,0,0,0.0093,0.0107,0.0102,0.0083,0.0081,0.0064,0.0063,0.0063,0.0042,0.0042,0.0041,0.0041,-0.0029,-0.0031,-0.0034,-0.0038,0,0,-0.0041,-0.0042,0,0,0,0,0,0,0,0,0.0094,0.0093,0.0086,0.0084,0.0081,0.0054,0.0039,0.0027,0.0042,0.006,0.0041,0.004,-0.0007,-0.0011,-0.0012,-0.0041,-0.0044,-0.0041,-0.0043,-0.0044,-0.0044,0,0,0,0,0,0,0,0.0095,0.0094,0.009,0.0085,0.0082,0.0059,0.0058,0.0037,0.0032,0.0058,0.0056,0.0047,-0.0008,-0.001,-0.0014,-0.0045,-0.0041,-0.0043,-0.0045,-0.0046,-0.0089,-0.0089,0,0,0,0,0,0,0.0097,0.0096,0.0091,0.0088,0.0083,0.006,0.0058,0.0066,0.0033,0.0026,0.0047,0.0046,-0.0005,-0.0011,-0.0017,-0.0018,-0.0044,-0.0046,-0.0047,-0.009,-0.0089,-0.0089,0,0,0,0,0,0,0.0097,0.0098,0.0092,0.0087,0.0085,0.006,0.0069,0.0065,0.0065,0.0024,0.0018,0.0051,-0.0006,-0.0013,-0.0033,-0.0022,-0.0047,-0.0049,-0.009,-0.0089,-0.0089,-0.0025,0,0,0,0,0,0,0.0098,0.0099,0.0108,0.0088,0.0085,0.0093,0.0069,0.0065,0.0058,0.0057,0.0025,0.0017,-0.0007,-0.0029,-0.0035,-0.0025,-0.0051,-0.009,-0.009,-0.0089,-0.0028,-0.0023,-0.0018,0,0,0,0,0,0.0099,0.0117,0.0109,0.0108,0.0098,0.0094,0.0091,0.0072,0.0059,0.0069,0.004,0.0019,-0.0031,-0.0031,-0.0038,-0.0028,-0.009,-0.009,-0.0089,-0.003,-0.0024,-0.0018,0,0,0,0,0,0,0.012,0.0115,0.0106,0.0121,0.0111,0.0089,0.0094,0.0078,0.0064,0.0059,0.0022,0.0013,0.0001,-0.0024,-0.0024,-0.0041,-0.0064,-0.0065,-0.0016,-0.0011,-0.0006,-0.0001,-0.0053,0,0,0,0,0,0.0129,0.0144,0.0129,0.0139,0.0139,0.0117,0.0112,0.0099,0.008,0.0074,0.0052,0.0023,-0.0002,-0.0015,-0.0036,-0.0046,-0.0089,-0.0045,-0.0041,-0.0036,-0.0037,-0.0094,-0.0094,-0.0087,-0.0087,-0.0087,0,0,0.0136,0.0136,0.0142,0.0144,0.0137,0.0146,0.0115,0.0113,0.0116,0.0067,0.0071,0.004,-0.0001,-0.001,-0.0018,-0.003,-0.0061,-0.0036,-0.0032,-0.0035,-0.0093,-0.0094,-0.0095,-0.0087,-0.0087,-0.0087,0,0,0.0161,0.0164,0.0185,0.0187,0.0179,0.0167,0.0169,0.0155,0.0148,0.014,0.0105,0.0078,0.005,0.0022,0.0002,0.0016,-0.0034,0.0013,0.004,-0.0014,-0.0015,-0.0016,-0.0071,-0.0078,0.0014,0.0015,0.0015,0,0.0169,0.0198,0.0188,0.021,0.0218,0.0182,0.0206,0.0192,0.0171,0.0165,0.0149,0.0096,0.0063,0.0038,0.0043,0.0027,-0.0013,0.0025,-0.0008,-0.001,-0.0013,-0.0068,-0.0077,0.0018,0.0017,0.0017,0.0017,0,0.0209,0.0234,0.0249,0.0269,0.0275,0.0289,0.0272,0.0272,0.0253,0.0228,0.0204,0.0154,0.0122,0.0107,0.0077,0.0048,0.0023,0.0006,-0.002,-0.001,-0.0069,-0.0079,0.0022,0.0021,0.002,0.0019,0,0,0.0225,0.027,0.0276,0.0309,0.0312,0.0328,0.0332,0.0328,0.0335,0.0291,0.0288,0.0231,0.0195,0.0169,0.0127,0.0076,0.0021,0.0038,0.0034,-0.0012,-0.0102,-0.0104,-0.0116,-0.0001,-0.0003,-0.0004,-0.0135,0,0.0261,0.0328,0.0332,0.0392,0.0431,0.0414,0.0429,0.0415,0.039,0.0376,0.0297,0.028,0.0221,0.0212,0.0147,0.0055,-0.0002,0.0058,-0.0108,-0.0113,-0.0114,-0.0127,-0.0008,-0.0142,-0.0145,-0.0147,-0.0148,0,0.0301,0.0346,0.042,0.0481,0.0496,0.052,0.0549,0.056,0.0514,0.0487,0.043,0.0371,0.0287,0.0242,0.007,0.0112,0.0011,-0.0068,-0.0076,-0.0108,-0.0134,-0.0157,-0.0167,-0.0165,-0.0164,-0.0163,-0.0161,0,0.034,0.0409,0.0479,0.05,0.0554,0.0584,0.0609,0.0595,0.0623,0.0563,0.0561,0.0434,0.039,0.0237,0.0065,0.0068,-0.0131,-0.0147,-0.0248,-0.025,-0.0236,-0.0234,-0.0268,-0.0268,-0.0268,-0.0267,-0.0267,0,0.0387,0.0443,0.051,0.0552,0.0644,0.0654,0.0732,0.0724,0.0722,0.0752,0.0633,0.0612,0.0389,0.025,0.0079,-0.012,-0.0126,-0.0251,-0.0285,-0.0206,-0.0198,-0.0244,-0.0239,-0.0272,-0.0271,-0.027,-0.0269,0,0.0429,0.0465,0.056,0.0637,0.0672,0.0745,0.084,0.089,0.0867,0.0899,0.0888,0.0741,0.0548,0.0318,0.006,-0.0079,-0.0279,-0.0345,-0.0247,-0.0273,-0.0367,-0.0358,-0.0473,-0.0475,-0.0476,-0.0476,-0.0477,0,0.0463,0.0516,0.0638,0.0708,0.0753,0.086,0.0937,0.0963,0.1007,0.098,0.099,0.0825,0.0697,0.0328,0.0071,-0.0271,-0.0311,-0.0415,-0.0395,-0.0367,-0.0389,-0.0378,-0.0368,-0.0479,-0.0479,-0.0479,-0.048,0,0.0528,0.0569,0.0646,0.0794,0.0898,0.1018,0.1114,0.1155,0.1176,0.1161,0.1075,0.0878,0.0653,0.034,0.007,-0.017,-0.0352,-0.0427,-0.0426,-0.0408,-0.0375,-0.0394,-0.0382,-0.0483,-0.0483,-0.0482,-0.0482,0,0.0582,0.0641,0.0743,0.0877,0.1003,0.1119,0.1178,0.1219,0.1259,0.1206,0.1173,0.0922,0.0766,0.0392,0.0145,-0.0101,-0.0159,-0.0226,-0.0236,-0.0236,-0.0132,-0.0053,-0.0096,0,0,0,0,0,0.063,0.0694,0.0818,0.0954,0.1077,0.1153,0.1266,0.1303,0.1317,0.1276,0.1224,0.1011,0.0633,0.046,0.0215,0.0117,-0.0207,-0.0178,-0.029,-0.0503,-0.0499,-0.0418,0,0,0,0,0,0,0.0658,0.0765,0.0821,0.0988,0.1081,0.1225,0.1298,0.132,0.1284,0.1252,0.1051,0.0949,0.0575,0.0766,0.0206,0.013,0.0028,-0.036,-0.0365,-0.0505,-0.0502,-0.0498,-0.0414,0,0,0,0,0]}]]